FENGYUN 1C DEB

Satellite information

Favourite Embed

Satellite Type and Status

DEBRISIN ORBIT

Key statistics

Satellite FENGYUN 1C DEB at a glance.

Uptime

9715

Days in orbit

Revolutions

≈ 14.5

Per day

Orbit

SSO

Sun Synchronous Orbit

Inclination

98.9

Latest

Satellite identification and parameters

Extended collection of information and parameters for FENGYUN 1C DEB.

Object identification

Identified? True

Debris? True

Object name: FENGYUN 1C DEB

International designator: 1999-025DKH

Object number (NORAD): 35105

Object ID (CCSDS): 35105

Country: PEOPLES REPUBLIC OF CHINA (PRC)

Current information (Y/N): Y

RCS size: SMALL

Orbital parameters

Period: 99.628 minutes

Inclination: 98.9435 deg

SMA: 7118.943 km

Apoapsis: 821.108 km

Periapsis: 660.509 km

RAAN: 326.1792 deg

Eccentricy: 0.01127969

Argument of periapsis: 58.9643 deg

Mean anomaly: 302.2564 deg

Mean motion: 14.45371375 rev/day

Mean motion (dot): 0.00001999 rev/day2

B* drag term: 0.00053947764 1/REarth

Two-line elements (TLE)

Creation date: Dec. 11, 2025, 10:54 a.m.

Reference frame: TEME

Reference center: EARTH

Epoch: Dec. 11, 2025, 5:03 a.m. UTC

TLE line 0: 0 FENGYUN 1C DEB

TLE line 1: 1 35105U 99025DKH 25345.21098830 .00001999 00000-0 53948-3 0 9999

TLE line 2: 2 35105 98.9435 326.1792 0112797 58.9643 302.2564 14.45371375944713

Live tracking on map

Real-time ground track for satellite FENGYUN 1C DEB.

In-orbit conjunctions

A list of the most updated potential collisions computed for object FENGYUN 1C DEB.

Target Orbit TCA Probability of collision Miss distance Type
FENGYUN 1C DEB SSO 2025-11-17 15:59:36 0.0006395961 101.0 (m) DEBRIS
FENGYUN 1C DEB SSO 2025-05-25 07:48:08 0.0002434299 113.0 (m) DEBRIS
SL-8 R/B LEO 2025-02-01 01:08:14 0.0001583554 574.0 (m) ROCKET BODY
NOAA 16 DEB SSO 2024-09-28 11:37:51 0.0001811282 141.0 (m) DEBRIS

Associated space launch

Chinese polar orbiting meteorological satellite

FENGYUN 1C DEB was lifted into orbit during the mission ‘Long March 4B | Feng Yun 1C’, on board a Long March 4B space rocket.

The launch took place on May 10, 1999, 1:33 a.m. from Launch Complex 7.

For more information about the launch, click the button.

Launch to space Long March 4B | Feng Yun 1C
Long March 4B | Feng Yun 1C

Agency: N/A

Status: Launch Successful

Launch date: May 10, 1999, 1:33 a.m. UTC

Rocket: Long March 4B

Launch pad: Launch Complex 7

Location: Taiyuan Satellite Launch Center, People's Republic of China

...

Latest news about this satellite

There are no fresh news available about this satellite. Check back as we update our databases every day.


Newsletter sign-up

Weekly statistics, charts and insights to help you stay on top of the space industry.